Vertical_Velocity
-1 -1 -0 -2 -1 3 -2 8 1 -4 -1 -7 1 -0 -1 -1 -1 0 -1 -0 -2 0 -1 -1 -1 -1 -1 -0 -1 -0 -1 -2 -1 -0 -1 -2 -2 -1 -1 -2 -2 -2 -0 2 3 -1 -8 0 5 -1 -8 5 6 3
-2 2 1 -0 1 -1 9 3 -4 8 9 -8 1 -0 -1 -1 -0 -1 -2 -0 -1 -1 -0 -1 -0 -1 -1 -1 0 1 1 -0 -2 -2 -2 -2 -1 -1 -1 -1 -2 -1 -2 -3 1 -9 3 12 -8 6 -5 -1 -1 -1
3 3 0 2 1 -3 -3 -1 3 -0 7 -4 2 -0 -1 -0 1 -2 -2 -1 -0 -0 0 -1 -3 -2 -2 -1 -1 -1 0 -0 -2 -2 -1 -1 -1 -1 -3 1 -1 0 -0 2 -3 -2 0 3 -0 0 -0 -1 -1 -0
0 1 1 3 0 4 -6 -5 3 0 10 -2 3 3 0 -0 1 -1 -2 0 -1 -1 0 -1 -1 -2 -2 -1 -2 -2 -3 -1 -1 -2 -2 -1 -1 2 -3 -3 3 -1 2 -4 2 4 -1 3 1 2 2 1 1 0
-1 2 4 1 -1 2 4 1 -3 -3 6 -4 -3 5 1 1 2 -0 -1 1 -0 -1 0 0 -0 1 1 -1 -1 -2 -2 -2 -2 -2 -3 -2 -3 -2 -2 0 4 -5 2 -4 6 -6 5 -2 1 -1 0 1 0 -0
0 -2 -4 1 1 5 5 -0 1 2 -2 0 -5 5 -0 1 3 -1 -2 1 1 -2 1 2 -1 -0 -1 -2 1 0 -0 -2 0 -0 -2 -2 -3 -4 -2 -0 -2 -5 0 3 7 -6 1 -5 7 2 -1 -2 -1 1
1 -4 0 2 2 -4 1 2 -1 1 2 0 -3 2 2 1 2 -1 -1 0 0 -1 -2 -0 -0 -1 -1 -2 -1 -2 -1 -1 -0 -2 1 -2 -5 -2 2 -1 -1 -0 -4 -4 6 1 1 3 -3 1 2 -1 -2 -2
-4 -3 5 4 5 -2 1 1 -1 1 6 0 -5 3 2 2 1 -0 -2 0 -1 -0 -2 -2 -3 0 -2 -1 -2 -1 -1 -1 -3 -3 -4 -5 -1 -1 3 2 -0 -0 1 1 -2 -3 -3 1 1 4 0 1 1 0
-1 -6 -0 -0 3 -1 -0 -0 -1 1 1 2 -6 2 3 1 2 -1 -0 1 -0 -2 -0 -0 -0 3 -0 -0 -0 -1 -1 -3 2 -3 -1 -2 2 -1 -0 -0 -1 0 -1 -3 2 -0 -0 3 -1 1 -2 -1 -0 -0
-4 0 -0 -2 3 -2 -1 1 4 6 3 9 -2 0 3 2 2 -0 1 0 -1 -0 -1 1 0 1 -1 -0 2 3 3 -3 0 1 1 3 -1 -1 -1 0 -0 -2 -0 0 -2 -2 6 15 14 4 4 3 1 1
-6 -2 -3 2 1 -2 -0 7 8 4 5 4 -2 -4 2 -0 0 0 -1 -0 0 1 -0 0 -1 2 -1 2 3 1 1 -0 -2 0 -2 1 -4 -1 -1 -3 -3 -3 -2 -2 -1 -0 3 2 -0 0 3 -3 -0 3
-5 -4 -5 -0 -0 -3 0 1 -1 -1 4 -2 -3 -2 -1 -1 0 0 2 0 1 1 -3 -2 -1 -1 3 -2 1 2 -0 -1 -2 -8 -0 -0 1 0 -2 -1 0 -1 -2 -2 -1 -1 0 -0 -3 -2 -0 2 4 2
4 -0 2 2 -2 -2 -6 -4 -1 -1 1 -2 -3 -1 1 -1 -0 3 2 2 2 -3 -1 -2 1 4 1 -0 2 0 -1 3 0 -4 1 -2 -1 2 2 1 -1 -2 -2 -1 1 -3 -1 -1 -1 -2 -1 2 -0 -1
3 -2 0 -1 -2 -3 -1 -1 1 0 1 0 -0 -1 -1 0 1 1 4 1 1 -3 -1 5 3 2 1 4 1 3 -1 3 15 -3 -3 -2 7 1 1 1 0 1 3 -1 -1 2 2 1 3 3 5 3 4 1
2 1 1 0 1 1 -1 -0 -0 -0 -0 -1 -1 -2 -0 -1 1 -0 2 -1 -2 0 1 4 4 38 1 -2 -0 11 5 3 -3 -9 -3 -2 16 1 1 2 -1 0 -1 -2 -4 -3 -3 -1 -0 -3 -2 2 4 1
3 2 1 -0 -1 -1 0 0 -1 0 -0 -2 -3 -2 -1 1 -0 -0 0 -0 1 1 0 0 2 1 1 4 5 12 13 6 -6 -5 1 1 4 1 1 2 0 -1 -2 -1 0 4 3 2 2 3 1 0 -3 -3
2 2 1 0 -0 -0 0 -1 -0 0 -0 -2 -1 -0 -1 -0 0 -0 1 -1 1 4 5 7 2 1 -9 10 29 31 7 1 -3 -4 2 -1 -2 -1 -3 -1 -0 -2 -0 1 0 -2 -0 0 1 1 2 0 1 -5
1 1 0 0 1 0 -0 -1 0 -0 -2 -1 -0 -1 -1 -1 -2 -0 -1 3 4 3 4 5 -0 -2 6 13 -0 3 -2 1 4 2 0 2 2 -1 0 1 1 2 1 -0 -1 -1 1 -2 -1 -2 -5 -5 3 -2
0 1 -1 -1 -0 -1 0 -0 -1 -1 -0 -1 -0 -1 -1 -1 -2 -0 2 -2 -2 -0 1 3 -1 -1 1 2 1 -1 1 0 3 -2 -1 -3 -1 -0 0 1 1 1 -1 -0 -3 -2 0 -1 7 -1 -2 0 -0 3
-0 -0 0 0 -0 -0 0 1 -2 -2 -1 -1 -1 -0 -0 -2 -1 -1 1 1 0 0 1 1 1 -1 -0 -2 -3 4 1 -2 -2 1 -3 -0 -0 8 1 -4 -4 -5 -4 -2 -1 -2 -7 -4 2 -2 4 2 -5 6
-0 1 -0 -1 -0 -1 -0 0 -1 -1 -1 -0 1 0 -2 -1 3 2 2 -0 2 4 2 -0 1 0 -0 -1 -4 -5 -6 -1 -2 -4 -6 -9 -4 -3 -5 -2 -3 -1 -2 -2 -3 -2 -1 -3 1 -2 5 28 21 4
1 -1 -0 -1 -0 -2 -1 -0 -1 -1 -1 0 -0 -1 -0 4 2 26 -2 3 4 0 -1 -1 -0 1 1 -2 -2 0 2 -1 -2 -2 -3 -2 -2 -1 -1 -3 -1 -1 -3 -4 -3 -3 -2 0 0 -1 -1 5 16 10
-1 -1 -0 -0 -1 -1 0 -0 -1 -2 -0 1 1 7 6 40 1 -1 3 -1 -0 -0 -1 -0 -1 -1 -3 -1 -1 -1 0 -1 -2 -2 -2 -1 -2 -2 -1 -1 -3 -2 -3 -3 -1 -5 -1 -2 -3 -6 -3 -1 -2 3
-1 -1 -1 -1 -0 1 0 -1 -1 -1 0 4 5 5 6 2 -1 -1 1 -1 -1 -2 -1 -1 -1 -1 -1 -1 -1 0 -0 -2 -2 -1 -1 -2 -3 -2 -2 -2 -1 -0 -3 -3 -2 -2 -2 -3 -2 -0 -3 -2 -3 -3
-1 -1 -1 -0 1 0 -1 -1 4 3 4 6 5 6 30 -1 0 1 -0 -1 -2 -1 -3 -3 -2 -4 -1 -0 -1 -1 -2 -2 -1 -0 -1 -2 -2 -1 -1 -2 -2 -2 -2 -0 2 1 -2 -1 -2 -3 -2 -2 -1 -1
-0 -0 -0 -0 -0 -1 -1 -1 -1 1 -1 -1 4 5 -0 -3 3 -4 -2 -2 -2 -2 -1 -2 -1 -2 -4 -2 -1 -1 -2 -2 -2 -1 -2 -1 -0 0 -0 -1 -1 -2 -2 -2 -3 -3 -2 -1 -1 -2 -2 -3 -3 -2
-1 -1 -0 -0 -0 -2 -1 -1 -2 -2 -1 2 9 9 -4 -3 -1 -3 -2 -2 -2 -1 -1 -1 -1 -1 -2 -1 -1 -1 -1 -1 -1 -2 -1 -1 -1 -0 -0 -4 -4 -2 -2 -1 -2 -1 -1 0 0 -0 -2 -3 -1 0
-1 -1 -0 -1 -1 -1 -1 -1 -1 -2 -1 -1 0 12 7 -0 -1 -1 -1 -2 -2 -1 -2 -2 -2 -2 -1 -1 -1 -0 -0 -1 -2 -1 -0 -1 -2 -1 -1 -2 -3 -3 -2 -3 -3 -1 -1 -1 -2 -1 -0 0 0 -0
-2 -1 -1 -1 -1 -1 -1 -1 -2 -0 -1 -2 2 12 11 -1 -1 -1 -1 -2 -2 -1 -1 -2 -2 -1 -1 -2 -1 -0 0 -0 -1 -1 -1 -0 -1 -1 -1 -1 -3 -2 -2 -4 -3 -2 -2 -2 -0 -1 -1 1 1 1
-1 -1 -1 -1 -1 -1 -2 -1 -0 -0 -0 1 3 2 -1 -0 -1 -1 -0 0 -0 -0 -0 -1 -1 -1 -1 -1 -1 -1 -1 -0 -0 -1 -1 -2 -1 -1 -1 -1 -2 -2 -2 -3 -2 -2 -1 -5 1 3 1 0 1 1
-1 -0 -2 -2 -2 -1 -1 -2 -1 -0 -0 -2 0 2 -1 -1 -1 -1 -1 -1 -1 0 2 2 1 -0 -2 -3 -1 -0 -1 -0 0 0 -1 -1 -2 -1 -0 -1 -2 -2 -1 -2 -2 -1 -1 -0 -3 -1 -1 -1 0 1
-1 -1 -1 -1 -1 -2 -2 -0 -3 16 6 2 2 0 0 0 0 0 -0 -1 -1 -0 -1 0 0 -0 1 -2 -2 -0 0 -0 0 0 -1 -0 -1 -1 -0 0 -2 -2 0 0 -0 -0 0 -0 -0 -1 -0 -0 -2 -2
-1 -2 -1 0 -0 -1 -3 -1 4 4 4 2 1 -0 -0 -1 3 -1 -0 -0 4 0 -2 0 -1 -1 0 -1 -2 -1 0 0 -1 -0 -0 -1 -0 -0 -0 -0 0 -1 -2 -1 0 0 0 0 1 1 0 1 0 -0
Height
5775 5770 5765 5761 5756 5752 5749 5745 5743 5744 5742 5747 5749 5751 5752 5752 5752 5751 5751 5750 5749 5747 5746 5744 5743 5742 5741 5740 5738 5737 5736 5734 5733 5732 5731 5731 5731 5730 5730 5729 5729 5731 5732 5734 5737 5739 5741 5739 5747 5748 5749 5751 5752 5757
5769 5764 5758 5753 5749 5745 5742 5738 5739 5738 5738 5744 5745 5748 5749 5750 5750 5749 5750 5749 5748 5746 5744 5743 5742 5741 5740 5738 5736 5734 5733 5731 5730 5730 5729 5728 5728 5727 5727 5726 5725 5726 5726 5727 5729 5729 5732 5732 5736 5739 5741 5743 5745 5746
5761 5757 5752 5747 5744 5740 5736 5734 5734 5735 5735 5739 5742 5744 5746 5747 5748 5747 5748 5747 5747 5746 5744 5742 5741 5740 5738 5737 5735 5733 5730 5728 5727 5726 5725 5724 5722 5722 5721 5721 5720 5720 5719 5720 5721 5722 5723 5724 5726 5729 5732 5734 5736 5738
5754 5750 5746 5743 5740 5737 5735 5733 5732 5732 5730 5733 5738 5741 5743 5744 5745 5745 5746 5746 5746 5745 5744 5742 5740 5739 5737 5735 5732 5730 5727 5725 5723 5721 5720 5718 5716 5714 5712 5712 5713 5713 5714 5714 5714 5714 5715 5717 5718 5720 5722 5724 5727 5728
5747 5743 5741 5740 5737 5734 5733 5731 5730 5728 5726 5728 5733 5737 5739 5741 5742 5743 5744 5744 5743 5744 5741 5739 5737 5736 5734 5732 5729 5727 5724 5721 5719 5717 5714 5711 5708 5706 5705 5705 5706 5703 5704 5705 5707 5707 5708 5709 5711 5712 5714 5715 5717 5719
5740 5737 5734 5733 5731 5729 5729 5727 5726 5724 5722 5723 5728 5733 5736 5738 5739 5740 5741 5742 5741 5740 5739 5737 5735 5733 5731 5729 5726 5723 5721 5718 5715 5712 5709 5706 5702 5700 5698 5698 5696 5694 5694 5695 5697 5696 5698 5700 5703 5704 5706 5707 5709 5710
5735 5732 5730 5728 5727 5726 5726 5723 5723 5722 5720 5719 5724 5729 5732 5734 5735 5737 5738 5739 5739 5738 5737 5735 5733 5730 5728 5725 5722 5719 5716 5713 5710 5707 5704 5701 5697 5695 5692 5689 5688 5686 5685 5685 5686 5687 5689 5690 5691 5693 5695 5697 5699 5700
5730 5727 5725 5723 5722 5720 5720 5719 5718 5717 5716 5714 5720 5724 5728 5730 5731 5733 5734 5735 5736 5735 5734 5732 5730 5727 5724 5721 5719 5715 5713 5710 5706 5702 5699 5695 5691 5687 5684 5681 5679 5677 5676 5676 5676 5676 5677 5677 5680 5682 5683 5686 5688 5689
5726 5723 5721 5718 5718 5716 5714 5714 5713 5713 5712 5710 5715 5720 5724 5726 5728 5729 5731 5732 5732 5733 5730 5728 5726 5723 5720 5717 5714 5711 5707 5704 5701 5698 5694 5690 5685 5680 5676 5673 5671 5669 5667 5666 5665 5666 5667 5668 5670 5672 5673 5675 5676 5677
5721 5719 5718 5714 5714 5711 5710 5710 5709 5709 5707 5707 5712 5717 5720 5722 5724 5726 5727 5728 5728 5727 5725 5724 5722 5719 5717 5714 5710 5708 5703 5700 5696 5693 5688 5683 5677 5672 5669 5666 5663 5661 5660 5658 5658 5658 5659 5659 5660 5662 5663 5664 5665 5665
5716 5715 5713 5711 5709 5708 5707 5706 5704 5705 5704 5704 5709 5714 5717 5719 5720 5722 5723 5724 5724 5723 5721 5719 5718 5714 5712 5709 5706 5702 5699 5695 5691 5688 5681 5676 5671 5666 5663 5660 5657 5654 5652 5652 5652 5653 5652 5652 5652 5653 5654 5654 5654 5654
5712 5710 5709 5708 5706 5705 5704 5702 5701 5700 5701 5704 5708 5711 5713 5716 5717 5719 5719 5720 5719 5718 5717 5715 5713 5710 5708 5704 5700 5697 5693 5690 5686 5681 5675 5669 5665 5660 5657 5654 5652 5649 5647 5645 5645 5644 5644 5644 5644 5643 5643 5642 5642 5641
5709 5707 5706 5705 5704 5702 5700 5699 5699 5700 5701 5704 5707 5708 5710 5712 5714 5715 5715 5715 5714 5713 5712 5710 5708 5705 5702 5698 5695 5691 5687 5683 5679 5674 5668 5663 5657 5655 5652 5649 5647 5644 5641 5640 5639 5637 5636 5635 5634 5633 5633 5633 5633 5631
5705 5704 5703 5702 5702 5701 5700 5700 5700 5700 5701 5702 5704 5705 5706 5708 5710 5710 5710 5710 5710 5709 5707 5704 5701 5699 5696 5693 5689 5685 5681 5677 5673 5668 5663 5657 5652 5649 5647 5644 5641 5639 5637 5634 5631 5629 5627 5625 5624 5622 5622 5621 5620 5618
5701 5701 5699 5700 5700 5699 5699 5698 5697 5697 5698 5699 5700 5701 5703 5705 5705 5706 5706 5706 5705 5704 5702 5700 5697 5694 5691 5688 5683 5677 5674 5671 5668 5662 5656 5652 5648 5644 5641 5638 5635 5633 5630 5627 5623 5620 5617 5614 5611 5609 5608 5606 5605 5605
5697 5697 5696 5696 5697 5696 5696 5695 5694 5693 5694 5695 5696 5698 5699 5701 5701 5702 5702 5701 5701 5699 5698 5695 5692 5689 5686 5681 5676 5672 5669 5666 5661 5655 5652 5647 5643 5639 5635 5631 5628 5625 5621 5617 5613 5609 5605 5601 5597 5593 5591 5589 5589 5590
5692 5691 5691 5692 5692 5691 5691 5690 5690 5689 5690 5691 5693 5694 5696 5697 5697 5698 5698 5697 5697 5695 5692 5690 5687 5685 5679 5669 5666 5666 5664 5660 5656 5649 5644 5640 5637 5632 5628 5625 5621 5617 5612 5608 5602 5597 5591 5585 5580 5575 5572 5570 5570 5572
5686 5686 5686 5687 5687 5687 5686 5686 5685 5686 5687 5689 5690 5691 5692 5693 5694 5694 5694 5693 5692 5690 5687 5684 5682 5680 5676 5672 5667 5664 5660 5654 5648 5644 5640 5636 5631 5627 5622 5618 5614 5609 5603 5597 5590 5583 5577 5570 5563 5558 5554 5551 5551 5553
5681 5681 5682 5682 5682 5682 5682 5682 5682 5684 5685 5686 5687 5689 5690 5691 5691 5691 5690 5688 5687 5686 5685 5683 5679 5675 5672 5668 5664 5660 5655 5650 5646 5641 5637 5632 5627 5622 5617 5612 5607 5601 5594 5587 5579 5572 5566 5558 5552 5548 5545 5541 5538 5541
5677 5677 5677 5677 5677 5677 5677 5678 5680 5681 5683 5685 5686 5687 5688 5688 5688 5687 5686 5686 5684 5682 5681 5678 5675 5672 5668 5664 5660 5656 5651 5646 5642 5637 5632 5628 5623 5619 5613 5606 5600 5594 5587 5579 5572 5565 5559 5552 5548 5546 5543 5540 5540 5542
5673 5673 5672 5672 5672 5673 5675 5676 5678 5680 5682 5684 5685 5686 5686 5687 5686 5685 5684 5682 5680 5679 5676 5673 5670 5667 5663 5659 5656 5652 5648 5644 5638 5633 5628 5623 5619 5614 5608 5603 5597 5590 5582 5575 5568 5562 5558 5553 5549 5548 5547 5546 5547 5548
5670 5670 5670 5670 5671 5672 5674 5675 5677 5679 5681 5682 5683 5683 5683 5684 5683 5681 5681 5679 5676 5674 5672 5669 5667 5664 5661 5657 5654 5650 5645 5640 5635 5631 5626 5622 5618 5612 5606 5600 5595 5588 5580 5573 5568 5562 5559 5556 5553 5551 5550 5549 5549 5549
5668 5668 5669 5669 5670 5671 5674 5675 5677 5678 5680 5681 5681 5680 5680 5680 5681 5680 5678 5676 5674 5671 5669 5667 5664 5662 5658 5654 5651 5647 5642 5637 5633 5628 5624 5620 5615 5610 5605 5599 5593 5587 5581 5574 5568 5563 5560 5556 5554 5551 5550 5548 5547 5547
5665 5666 5667 5668 5669 5671 5673 5674 5676 5678 5679 5680 5680 5680 5679 5679 5678 5676 5675 5672 5670 5668 5666 5664 5661 5658 5655 5651 5648 5644 5640 5635 5631 5627 5623 5618 5614 5609 5604 5599 5593 5588 5582 5576 5570 5565 5561 5557 5553 5550 5546 5544 5542 5540
5664 5666 5666 5667 5668 5670 5672 5674 5675 5677 5678 5679 5678 5678 5675 5676 5674 5673 5672 5669 5667 5665 5663 5661 5658 5654 5652 5648 5645 5641 5637 5633 5629 5625 5622 5617 5613 5609 5604 5599 5594 5588 5583 5579 5574 5568 5563 5558 5554 5550 5547 5543 5540 5537
5661 5663 5665 5666 5668 5670 5672 5673 5675 5676 5677 5677 5677 5676 5675 5671 5668 5670 5669 5667 5664 5662 5660 5657 5654 5651 5648 5646 5643 5640 5636 5632 5628 5625 5621 5617 5613 5609 5605 5600 5595 5590 5585 5581 5576 5571 5567 5561 5557 5553 5549 5546 5542 5539
5660 5662 5664 5666 5668 5670 5672 5673 5674 5675 5676 5676 5675 5674 5673 5672 5670 5669 5667 5665 5662 5660 5657 5654 5652 5649 5647 5644 5641 5638 5634 5631 5627 5624 5620 5617 5613 5609 5605 5601 5596 5592 5588 5583 5579 5575 5570 5566 5561 5557 5553 5549 5545 5542
5661 5663 5665 5667 5668 5670 5672 5673 5673 5674 5674 5674 5673 5671 5670 5670 5669 5667 5665 5663 5661 5659 5656 5653 5650 5647 5644 5642 5639 5636 5633 5630 5626 5623 5620 5617 5613 5610 5606 5602 5598 5594 5591 5587 5582 5578 5573 5569 5565 5561 5557 5553 5550 5547
5662 5664 5666 5668 5669 5670 5671 5672 5672 5673 5673 5672 5671 5668 5668 5667 5667 5666 5664 5662 5660 5657 5654 5651 5648 5646 5643 5640 5637 5635 5632 5629 5626 5622 5619 5616 5614 5611 5607 5604 5600 5597 5593 5590 5586 5582 5578 5573 5569 5565 5561 5557 5554 5550
5663 5665 5667 5668 5669 5670 5671 5671 5672 5672 5671 5670 5668 5667 5666 5665 5664 5663 5661 5660 5658 5655 5652 5649 5647 5644 5642 5639 5636 5633 5630 5628 5625 5622 5619 5616 5614 5611 5608 5606 5603 5599 5596 5593 5590 5586 5582 5577 5574 5570 5566 5561 5558 5554
5664 5665 5667 5668 5669 5670 5670 5670 5670 5670 5669 5668 5667 5666 5665 5663 5662 5661 5659 5656 5654 5652 5650 5647 5645 5642 5640 5637 5634 5631 5629 5627 5624 5622 5619 5616 5614 5612 5609 5606 5604 5601 5599 5596 5593 5589 5586 5582 5577 5573 5569 5566 5562 5558
5664 5665 5666 5667 5669 5669 5669 5669 5668 5667 5666 5666 5665 5663 5662 5661 5659 5658 5656 5654 5651 5649 5646 5643 5641 5640 5637 5636 5633 5630 5627 5625 5623 5621 5618 5616 5614 5612 5610 5607 5605 5603 5601 5599 5596 5592 5589 5586 5582 5578 5574 5570 5566 5562
5663 5664 5665 5667 5667 5667 5667 5666 5666 5665 5664 5662 5661 5660 5658 5657 5655 5654 5652 5649 5647 5645 5643 5641 5639 5637 5635 5633 5631 5628 5625 5623 5620 5619 5617 5615 5613 5611 5609 5608 5606 5604 5602 5600 5598 5595 5592 5589 5586 5582 5579 5575 5571 5567